[[{"header":{"parameterUnit":"m.s-1","parameterCategory":1,"la1":30.2991,"la2":30.254,"lo1":-89.0895,"lo2":-89.0444,"dy":0.0017,"dx":0.0017,"nx":28,"ny":28,"refTime":"2025-08-28T09:00:00:Z","depth":0,"parameterNumber":2,"parameterNumberName":"U-component_of_WINDS"},"data":[0,0,0,0,0,0,0,0,0,0,0,0,0,0,0,0,0,0,0,0,0,0,0,0,0,0,0,0,0,0,0,0,0,0,0,0,0,0,0,0,0,0,0,0,0,0,0,0,0,0,0,0,0,0,0,0,0,0,0.9628,0.9627,0,0.9576,0.9575,0.9575,0.9529,0.9529,0.9528,0.9528,0.9475,0.9474,0.9473,0,0,0,0,0,0,0,0,0,0,0,0,0,0.9685,0.9684,0.9628,0.9627,0.9626,0.9576,0.9575,0.9574,0.9529,0.9529,0.9528,0.9528,0.9475,0.9474,0.9473,0,0,0,0,0,0,0,0,0,0,0,0,0,0.965,0.9684,0.9628,0.9598,0.9595,0.9576,0.9575,0.9574,0.953,0.9529,0.9528,0.9527,0.9475,0.9474,0.9473,0.948,0,0,0.9468,0.9468,0,0,0,0,0,0,0,0,0.9652,0.9647,0.9603,0.96,0.9596,0.9558,0.9576,0.9543,0.953,0.9554,0.9528,0.9527,0.9503,0.9499,0.9491,0.9477,0.9475,0.9468,0.9468,0.9467,0.9467,0,0,0,0,0,0,0,0.9654,0.9649,0.9607,0.9602,0.9598,0.9586,0.958,0.9569,0.9534,0.9552,0.9549,0.9543,0.9501,0.9493,0.949,0.9474,0.9468,0.9467,0.9466,0.9466,0.9459,0.946,0,0,0,0,0,0,0.9661,0.9652,0.9609,0.9605,0.9623,0.9586,0.9579,0.9571,0.9534,0.9527,0.9544,0.9541,0.9496,0.9492,0.9488,0.9491,0.9467,0.9466,0.9465,0.9458,0.9459,0.946,0,0,0,0,0,0,0.9663,0.9658,0.9611,0.9628,0.9621,0.9586,0.9577,0.9571,0.9562,0.9527,0.9521,0.9542,0.9495,0.949,0.9481,0.9488,0.9465,0.9464,0.9458,0.9459,0.946,0.9499,0,0,0,0,0,0,0.9665,0.9659,0.9662,0.9628,0.962,0.9606,0.9578,0.957,0.956,0.9556,0.9524,0.9518,0.9494,0.9483,0.948,0.9486,0.9463,0.9457,0.9458,0.9459,0.9497,0.9501,0.9505,0,0,0,0,0,0.9667,0.9676,0.9662,0.9657,0.9623,0.9606,0.9602,0.9574,0.9561,0.9563,0.954,0.9519,0.9488,0.9483,0.9478,0.9485,0.9456,0.9458,0.9459,0.9495,0.95,0.9505,0,0,0,0,0,0,0.9712,0.9671,0.9655,0.9654,0.9634,0.9599,0.9601,0.9581,0.9564,0.9561,0.9527,0.952,0.9515,0.9499,0.9494,0.9487,0.9469,0.947,0.9498,0.9503,0.9507,0.951,0.9461,0,0,0,0,0,0.9722,0.9712,0.9676,0.9678,0.9669,0.9637,0.9628,0.9608,0.9586,0.9578,0.9554,0.9534,0.9519,0.951,0.9495,0.9494,0.9485,0.9496,0.95,0.9503,0.9504,0.9499,0.9503,0.9465,0.9465,0.9465,0,0,0.9742,0.9718,0.9714,0.9686,0.9669,0.9658,0.963,0.9621,0.9612,0.9576,0.9566,0.9548,0.9522,0.9517,0.9513,0.9503,0.9512,0.9505,0.9508,0.9507,0.9501,0.9505,0.9508,0.9466,0.9466,0.9465,0,0,0.9772,0.9754,0.9752,0.9734,0.9707,0.9685,0.9685,0.9652,0.9639,0.9628,0.96,0.9589,0.9565,0.9547,0.9535,0.9555,0.9535,0.9552,0.9572,0.9568,0.9571,0.9573,0.9579,0.9581,0.9552,0.9553,0.9553,0,0.98,0.9784,0.9754,0.9745,0.9733,0.9699,0.9696,0.968,0.965,0.9642,0.9631,0.9598,0.9579,0.9567,0.9572,0.9564,0.9561,0.9555,0.9573,0.9575,0.9577,0.9581,0.9584,0.9555,0.9554,0.9554,0.9554,0,0.9818,0.9807,0.9809,0.9779,0.9767,0.9762,0.9729,0.9721,0.9701,0.968,0.9668,0.9643,0.962,0.9616,0.9598,0.9601,0.9595,0.958,0.956,0.9583,0.9587,0.9588,0.9558,0.9557,0.9556,0.9556,0,0,0.9877,0.9829,0.983,0.9814,0.9781,0.9772,0.9763,0.9741,0.9733,0.9713,0.9704,0.9683,0.9667,0.9653,0.9632,0.9628,0.9643,0.9612,0.9611,0.9617,0.9642,0.9653,0.9656,0.9629,0.9629,0.963,0.9643,0,0.99,0.9884,0.9855,0.9848,0.9835,0.9802,0.9794,0.9772,0.9752,0.9738,0.9715,0.97,0.9681,0.9672,0.9667,0.9642,0.9647,0.9641,0.9619,0.9619,0.9625,0.9658,0.9671,0.9685,0.9645,0.9645,0.9645,0,0.9926,0.9906,0.9897,0.9862,0.9856,0.985,0.9825,0.9813,0.9786,0.9771,0.9754,0.9731,0.9718,0.9702,0.9683,0.968,0.9669,0.9655,0.9655,0.9651,0.9633,0.9653,0.9689,0.9691,0.9648,0.9647,0.9647,0,0.9966,0.9938,0.9928,0.9916,0.9876,0.9871,0.9854,0.9827,0.9815,0.9793,0.9784,0.9762,0.975,0.9732,0.9703,0.9694,0.9686,0.9668,0.9672,0.9673,0.9672,0.9672,0.9705,0.9667,0.9667,0.9667,0.9667,0,0.9995,0.999,0.9945,0.9939,0.9931,0.9898,0.9892,0.9871,0.9847,0.9835,0.9805,0.9794,0.9756,0.9741,0.9718,0.9704,0.9699,0.9686,0.9679,0.9688,0.9689,0.9679,0.9677,0.9668,0.9668,0.9667,0.9667,0,1.0038,1.0008,0.9995,0.9957,0.9947,0.9943,0.991,0.9902,0.9879,0.9864,0.9859,0.9822,0.9802,0.9771,0.9742,0.9726,0.9716,0.9706,0.9725,0.9721,0.9726,0.9725,0.9753,0.9753,0.9717,0.9718,0.9718,0,1.0058,1.0053,1.0014,1.0004,0.9987,0.9972,0.9958,0.9925,0.9912,0.988,0.9875,0.9852,0.9832,0.9801,0.9772,0.9748,0.9737,0.9748,0.9733,0.9741,0.9735,0.9735,0.9733,0.9751,0.9752,0.9752,0.9753,0,1.0094,1.0079,1.0061,1.0037,1.0022,1.0002,0.998,0.9973,0.9934,0.9921,0.99,0.9884,0.9853,0.983,0.9803,0.9784,0.9761,0.9757,0.9757,0.9765,0.9775,0.9767,0.9732,0.9757,0.9757,0.9756,0.9756,0.9756,1.0125,1.0118,1.0089,1.0069,1.0049,1.0029,1.0018,0.9993,0.9975,0.9947,0.9928,0.9908,0.9878,0.9839,0.9821,0.9803,0.9793,0.9793,0.9793,0.9793,0.9795,0.9779,0.9798,0.9798,0.9798,0.9798,0.9798,0,1.0158,1.0137,1.012,1.0089,1.0073,1.0053,1.0027,1.0015,0.9997,0.9972,0.9953,0.9927,0.9904,0.9872,0.9846,0.9838,0.9826,0.9832,0.9832,0.9827,0.9806,0.9808,0.9841,0.9841,0.9841,0.9841,0.9841,0.9841,1.0174,1.016,1.0141,1.0117,1.0096,1.0075,1.0061,1.0042,1.0021,0.9994,0.9974,0.9954,0.9925,0.9896,0.9874,0.9865,0.9856,0.9864,0.9852,0.9833,0.9829,0.9825,0.9827,0.9863,0.9863,0.9874,0.9874,0.9874]},{"header":{"parameterUnit":"m.s-1","parameterCategory":1,"la1":30.2991,"la2":30.254,"lo1":-89.0895,"lo2":-89.0444,"dy":0.0017,"dx":0.0017,"nx":28,"ny":28,"refTime":"2025-08-28T09:00:00:Z","depth":0,"parameterNumber":3,"parameterNumberName":"V-component_of_WINDS"},"data":[0,0,0,0,0,0,0,0,0,0,0,0,0,0,0,0,0,0,0,0,0,0,0,0,0,0,0,0,0,0,0,0,0,0,0,0,0,0,0,0,0,0,0,0,0,0,0,0,0,0,0,0,0,0,0,0,0,0,5.8085,5.8084,0,5.8048,5.8047,5.8047,5.7946,5.7944,5.7941,5.7939,5.7902,5.7903,5.7904,0,0,0,0,0,0,0,0,0,0,0,0,0,5.8067,5.8067,5.8085,5.8084,5.8084,5.8048,5.8047,5.8047,5.7946,5.7943,5.7941,5.7938,5.7901,5.7902,5.7904,0,0,0,0,0,0,0,0,0,0,0,0,0,5.8057,5.8068,5.8085,5.8029,5.8024,5.8048,5.8047,5.8047,5.7947,5.7943,5.794,5.7937,5.7901,5.7902,5.7904,5.7979,0,0,5.7909,5.7909,0,0,0,0,0,0,0,0,5.8057,5.8057,5.8038,5.8033,5.8027,5.7998,5.8027,5.8024,5.7947,5.7976,5.7939,5.7935,5.7936,5.7935,5.7935,5.7977,5.7975,5.7909,5.791,5.791,5.7911,0,0,0,0,0,0,0,5.8058,5.8058,5.807,5.8038,5.8031,5.8006,5.8001,5.8026,5.7975,5.7973,5.7966,5.7963,5.7933,5.7934,5.7933,5.7975,5.7909,5.791,5.7911,5.7912,5.8073,5.8076,0,0,0,0,0,0,5.8067,5.806,5.8071,5.8069,5.8034,5.8009,5.8003,5.8011,5.7974,5.7966,5.7966,5.7958,5.7933,5.7932,5.7932,5.8013,5.791,5.7912,5.7913,5.8069,5.8073,5.8077,0,0,0,0,0,0,5.8067,5.8069,5.8073,5.8062,5.8061,5.8012,5.8022,5.8012,5.8012,5.7969,5.7959,5.7976,5.793,5.7929,5.7967,5.8011,5.7912,5.7914,5.8065,5.8071,5.8075,5.818,0,0,0,0,0,0,5.8067,5.8069,5.8098,5.8064,5.8062,5.8109,5.8025,5.8013,5.8015,5.8005,5.7976,5.7968,5.7927,5.7965,5.7968,5.8011,5.7915,5.8061,5.8068,5.8074,5.8173,5.8188,5.8202,0,0,0,0,0,5.8067,5.813,5.81,5.8102,5.8096,5.8112,5.8111,5.8063,5.8019,5.8047,5.8018,5.7969,5.8007,5.797,5.7973,5.8017,5.8058,5.8066,5.8073,5.8166,5.8185,5.8202,0,0,0,0,0,0,5.8171,5.8124,5.809,5.8145,5.8133,5.8095,5.8128,5.8086,5.8086,5.8077,5.8018,5.8012,5.8057,5.8041,5.8001,5.8086,5.8024,5.8032,5.8094,5.8112,5.8126,5.8127,5.7916,0,0,0,0,0,5.82,5.8217,5.8176,5.8227,5.8223,5.8177,5.8182,5.8147,5.8132,5.8127,5.8101,5.8089,5.8097,5.8104,5.811,5.8171,5.8161,5.8203,5.8217,5.8229,5.8236,5.8264,5.8281,5.8102,5.8102,5.8102,0,0,5.8261,5.8238,5.8252,5.8248,5.8234,5.8252,5.8174,5.8197,5.8209,5.813,5.8162,5.8144,5.8126,5.8175,5.8195,5.8163,5.8284,5.8239,5.8249,5.8249,5.8273,5.829,5.8305,5.8107,5.8106,5.8105,0,0,5.8379,5.8365,5.8405,5.8393,5.8373,5.8342,5.8352,5.832,5.8304,5.8336,5.8276,5.829,5.8308,5.8296,5.8293,5.8406,5.8359,5.841,5.8485,5.8512,5.8526,5.8538,5.8575,5.859,5.8418,5.8418,5.8418,0,5.8457,5.8482,5.8431,5.8456,5.8455,5.8385,5.8423,5.8415,5.8399,5.8399,5.8364,5.8381,5.8365,5.8408,5.8435,5.8437,5.8444,5.8411,5.8529,5.854,5.8551,5.8585,5.86,5.8424,5.8423,5.8423,5.8422,0,5.8576,5.8594,5.8629,5.8613,5.8616,5.8649,5.8602,5.8611,5.8575,5.8548,5.858,5.8558,5.8556,5.8564,5.853,5.8602,5.8582,5.8539,5.8475,5.8575,5.8606,5.8619,5.8433,5.843,5.8429,5.8427,0,0,5.8758,5.8713,5.8727,5.8717,5.8691,5.8703,5.8732,5.873,5.8738,5.8729,5.875,5.8766,5.8724,5.8721,5.8685,5.871,5.8796,5.8662,5.8661,5.8685,5.887,5.89,5.8917,5.8766,5.8769,5.8771,5.887,0,5.8867,5.8912,5.8867,5.8921,5.8935,5.8869,5.8893,5.8879,5.8854,5.8862,5.8834,5.8845,5.8792,5.8788,5.881,5.8781,5.8832,5.8774,5.8782,5.8783,5.8785,5.8933,5.8966,5.9061,5.8883,5.8885,5.8886,0,5.8999,5.8995,5.9051,5.9018,5.9022,5.9045,5.9038,5.9048,5.903,5.901,5.9005,5.8961,5.8985,5.8926,5.8957,5.8919,5.892,5.8906,5.8909,5.8905,5.8838,5.893,5.909,5.9103,5.8906,5.8904,5.8903,0,5.9121,5.9131,5.9164,5.9159,5.9123,5.914,5.9125,5.9104,5.9105,5.91,5.9099,5.9097,5.9095,5.9094,5.905,5.9012,5.9086,5.9024,5.9068,5.9069,5.9084,5.9083,5.9243,5.9091,5.9091,5.9091,5.909,0,5.9245,5.9281,5.9218,5.9238,5.9275,5.9223,5.9261,5.924,5.9222,5.9236,5.918,5.9194,5.9137,5.9145,5.9111,5.914,5.9141,5.9123,5.9113,5.9126,5.9128,5.9124,5.9115,5.9094,5.9094,5.9093,5.9092,0,5.9386,5.9346,5.9377,5.934,5.9332,5.9361,5.9328,5.9345,5.9316,5.9335,5.9336,5.9291,5.9297,5.9254,5.9253,5.923,5.9274,5.9254,5.928,5.9272,5.9317,5.9312,5.9477,5.9495,5.9336,5.9337,5.9339,0,5.9466,5.9492,5.9457,5.9462,5.945,5.946,5.946,5.941,5.9412,5.9393,5.9411,5.9413,5.9411,5.9424,5.9391,5.9389,5.9366,5.9424,5.9365,5.9377,5.9362,5.936,5.9361,5.9436,5.9438,5.9439,5.9441,0,5.9611,5.9589,5.9592,5.9587,5.9589,5.9583,5.9573,5.9581,5.9526,5.9531,5.9537,5.9535,5.9533,5.9534,5.9526,5.951,5.9465,5.946,5.9469,5.9481,5.9493,5.9483,5.9309,5.9455,5.9454,5.9453,5.9452,5.9451,5.9721,5.974,5.9717,5.9721,5.9709,5.97,5.9713,5.9686,5.9689,5.9683,5.9654,5.9664,5.9643,5.9627,5.9615,5.9621,5.9593,5.9608,5.9611,5.9614,5.9621,5.9495,5.962,5.962,5.9619,5.9619,5.9619,0,5.986,5.9842,5.9846,5.9834,5.9836,5.9796,5.9782,5.9787,5.9796,5.9781,5.978,5.9785,5.9786,5.9753,5.9749,5.976,5.9739,5.976,5.9757,5.9753,5.9648,5.9638,5.9777,5.9777,5.9777,5.9777,5.9777,5.9777,5.9932,5.9959,5.9935,5.9955,5.9937,5.9946,5.9942,5.9933,5.992,5.9928,5.9928,5.9907,5.9884,5.9877,5.9876,5.9866,5.9865,5.9893,5.9876,5.9777,5.9761,5.9747,5.9737,5.9894,5.9894,5.998,5.998,5.9981]}]]